Showing default

IRIDIUM 119, 42959

Orbit data source: Space-Track

IRIDIUM 119, 42959 is a payload satellite owned by Iridium (US) in LEO that was launched on Mon, 09 Oct 2017 UTC via an FALCON 9 launch vehicle from the Air Force Western Test Range (AFWTR). Payload-class satellites include a variety of spacecraft equipped with specific instruments for various scientific and technological missions. These include communications satellites like Starlink; space stations such as the ISS; scientific satellites like the Hubble; Earth observation satellites from companies like Planet Labs, Umbra, and HawkEye 360; GPS; miniature CubeSats for education and research; and military/defense satellites.

Loading next visibility...
Identifier
42959, 2017-061E
Orbit
LEO
Country
Flag of USUS
Related business
Manufacturer
OATK SSG Gilbert
Mission
Operational Commercial Communications
Bus & Motor
ELITEBUS, Unknown motor
Mass
860 kg wet, 700 kg dry
Launch date (UTC)
2017-10-09 (8 years ago)
Launch vehicle
FALCON 9
Launch site
Air Force Western Test Range (AFWTR)
Object type
Payload
Rocket body
Debris
Shape & HBR
Trap Box + 2 Pan, 4.8 m
Radar Cross Section
10.154 m², Large (>1 m²)

Expand to show TLE details & history
Last TLE update: 8 hours ago

TLE from 8 hours ago
0 IRIDIUM 119
1 42959U 17061E   25307.77438235  .00000019  00000-0 -38863-6 0  9995
2 42959  86.3941 119.5060 0002130  83.5724 276.5715 14.34217614422508
Epoch: 2025-11-03T18:35Z
TLE epoch observation values (Epoch: 2025-11-03T18:35:06.635Z)
Latitude
0.00007°
Longitude
157.45743°
Altitude
780.544 km
Speed
7.464 km/s
True Right ascension
07h 58m 01s
True Declination
0° 00' 00"
Sunlit
Object was in daylight at epoch
Visualization orbit readout
Latitude
Unknown
Longitude
Unknown
Altitude
Unknown
Speed
Unknown
Apparent Right ascension
Unknown
Apparent Declination
Unknown
Sunlit
N/A
Visualization observer readout
Local Sidereal Time
22:44:44
Azimuth
Unknown
Elevation
Unknown
Doppler factor
Unknown
Orbital elements
Apogee altitude
776.156 km
Perigee altitude
773.109 km
Semi-major axis
7,152.769 km
Eccentricity
0.00021
Inclination
86.3941°
RAAN
119.506°
Arg. of periapsis
83.5724°
True anomaly
276.54725°
Mean anomaly
276.5715°
Eccentric anomaly
276.55938°
Mean motion
3.58783 °/min
Orbital period
100.34 mins
BSTAR
-3.8863e-7
Loading maneuver chart data...
Computing Atmospheric mass density...
Loading historical data...
Loading historical data...
Loading historical data...
Loading historical data...
Loading historical data...
Loading historical data...
Loading historical data...

Documentation

Showing up to 5 results
|